Regional Weather Roundup
Issued by NWS

Home | Current Version | Previous Version | Graphics & Text | Print | Product List | Glossary On
Versions: 1 2 3 4 5 6 7 8 9 10 11 12 13 14 15 16 17 18 19 20 21 22 23 24 25 26 27 28 29 30 31 32 33 34 35 36 37 38 39 40 41 42 43 44 45 46 47 48 49 50
000
ASUS43 KLSX 182107
RWRMO

WEATHER SUMMARY FOR MISSOURI
NATIONAL WEATHER SERVICE SPRINGFIELD MO
400 PM CDT THU SEP 18 2014

NOTE: "FAIR" INDICATES FEW OR NO CLOUDS BELOW 12,000 FEET WITH NO
       SIGNIFICANT WEATHER AND/OR OBSTRUCTIONS TO VISIBILITY.
       CURRENT SKY AND/OR WEATHER CONDITIONS ARE NOT AVAILABLE FOR
       CHILLICOTHE AND FARMINGTON.

MOZ001>031-035>038-043-044-053-054-182200-
...NORTHERN AND WESTERN MISSOURI...

CITY           SKY/WX    TMP DP  RH WIND       PRES   REMARKS
KANSAS CTY INT CLOUDY    65  61  87 E8        30.01F
KANSAS C DTWN  CLOUDY    67  61  81 E9        30.00S
LEE`S SUMMIT   CLOUDY    66  62  87 E7        30.01S
ST JOSEPH      CLOUDY    66  59  78 E7        30.01F
CHILLICOTHE      N/A     70  59  68 SE6       30.03F
KIRKSVILLE     PTSUNNY   71  57  61 E7        30.05S

$$
MOZ066>068-077>081-088>096-101>105-182200-
...SOUTHWEST MISSOURI...

CITY           SKY/WX    TMP DP  RH WIND       PRES   REMARKS
SPRINGFIELD    CLOUDY    71  63  75 S10       29.99S
JOPLIN         PTSUNNY   76  63  64 E9        29.95F

$$
MOZ032>034-039>042-045>050-055>058-069>072-182200-
...CENTRAL MISSOURI...

CITY           SKY/WX    TMP DP  RH WIND       PRES   REMARKS
COLUMBIA       MOSUNNY   72  60  66 E12       30.01F
JEFFERSON CITY CLOUDY    73  59  61 E6        30.00S
ROLLA          CLOUDY    70  60  70 SE6       30.00F
SEDALIA        CLOUDY    70  62  76 E7        30.01S
WHITEMAN AFB   PTSUNNY   69  62  78 E7        30.00S
OSAGE BEACH    CLOUDY    70  61  73 SE8       30.01F

$$
MOZ051-052-059>065-182200-
...EAST CENTRAL MISSOURI...

CITY           SKY/WX    TMP DP  RH WIND       PRES   REMARKS
ST LOUIS INTL  MOSUNNY   75  55  49 SE9       30.02F
SPIRIT OF STL  MOSUNNY   73  56  54 E9        30.01S
ST CHARLES     SUNNY     74  54  49 E10       30.01F

$$
MOZ072>076-082>087-097>100-106>115-182200-
...SOUTH CENTRAL AND SOUTHEAST MISSOURI...

CITY           SKY/WX    TMP DP  RH WIND       PRES   REMARKS
CAPE GIRARDEAU PTSUNNY   75  59  57 NE6       29.99S
FARMINGTON     CLOUDY    72  57  60 SE8       30.03S
POPLAR BLUFF   PTSUNNY   75  59  57 NE6       29.96F
WEST PLAINS    CLOUDY    66  60  81 NE7       30.03R

$$



USA.gov is the U.S. government's official web portal to all federal, state and local government web resources and services.